FW3054 Weather Reports


Display with metric or nautical units.
time (UTC)temp
F
wind
direction
speed
MPH
gust
MPH
rain 1hr
in
rain 24hr
in
rain mn
in
humidity
%
barometer
mb
20260509042521 52 0.0 0.0 0.00 0.00 0.00 88 1015.1
20260509041521 53 0.0 0.0 0.00 0.00 0.00 87 1014.9
20260509040521 53 0.0 0.0 0.00 0.00 0.00 87 1015.1
20260509035522 53 0.0 0.0 0.00 0.00 0.00 86 1015.0
20260509034521 53 0.0 0.0 0.00 0.00 0.00 86 1015.3
20260509033521 54 0.0 0.0 0.00 0.00 0.00 85 1015.4
20260509032521 54 0.0 0.0 0.00 0.00 0.00 84 1015.3
20260509031521 55 0.0 0.0 0.00 0.00 0.00 83 1015.1
20260509030521 55 0.0 0.0 0.00 0.00 0.00 82 1015.3
20260509025521 55 0.0 0.0 0.00 0.00 0.00 81 1015.0
20260509024521 56 0.0 0.0 0.00 0.00 0.00 80 1015.0
20260509023521 56 0.0 0.0 0.00 0.00 0.00 80 1014.9
20260509022521 57 0.0 0.0 0.00 0.00 0.00 79 1014.9
20260509021521 57 0.0 0.0 0.00 0.00 0.00 77 1014.6
20260509020521 57 0.0 0.0 0.00 0.00 0.00 77 1014.9
20260509015546 58 0.0 0.0 0.00 0.00 0.00 75 1014.9
20260509014521 58 0.0 0.0 0.00 0.00 0.00 75 1014.5
20260509013521 58 0.0 1.0 0.00 0.00 0.00 74 1014.5
20260509012521 59 0.0 1.0 0.00 0.00 0.00 74 1014.3
20260509011521 59 0.0 0.0 0.00 0.00 0.00 73 1014.1
20260509010521 59 0.0 0.0 0.00 0.00 0.00 73 1014.2
20260509005521 59 0.0 1.0 0.00 0.00 0.00 72 1014.1
20260509004521 59 0.0 1.0 0.00 0.00 0.00 71 1013.9
20260509003521 60 0.0 1.0 0.00 0.00 0.00 71 1013.8
20260509002521 60 113 1.0 2.0 0.00 0.00 0.00 70 1013.8
20260509001521 60 135 1.0 2.0 0.00 0.00 0.00 69 1013.7
20260509000521 61 135 1.0 2.0 0.00 0.00 0.00 69 1013.7
20260508235521 61 203 1.0 3.0 0.00 0.00 0.00 69 1013.7
20260508234546 61 135 1.0 4.0 0.00 0.00 0.00 68 1013.7
20260508233546 62 135 1.0 3.0 0.00 0.00 0.00 67 1013.8
20260508232521 62 135 1.0 2.0 0.00 0.00 0.00 66 1013.8
20260508231521 62 135 2.0 3.0 0.00 0.00 0.00 64 1013.6
20260508230521 63 113 1.0 3.0 0.00 0.00 0.00 65 1013.6
20260508225521 63 158 1.0 2.0 0.00 0.00 0.00 63 1013.8
20260508224521 64 113 2.0 4.0 0.00 0.00 0.00 62 1013.6
20260508223521 64 113 2.0 4.0 0.00 0.00 0.00 61 1013.8
20260508222546 65 135 1.0 5.0 0.00 0.00 0.00 60 1013.8
20260508221521 65 135 2.0 4.0 0.00 0.00 0.00 60 1013.9
20260508220521 66 113 1.0 4.0 0.00 0.00 0.00 59 1013.8
20260508215521 66 135 1.0 2.0 0.00 0.00 0.00 59 1013.9
20260508214521 66 135 1.0 3.0 0.00 0.00 0.00 57 1013.9
20260508213521 67 135 1.0 4.0 0.00 0.00 0.00 56 1014.3
20260508212521 67 203 1.0 2.0 0.00 0.00 0.00 56 1014.1
20260508211521 67 135 1.0 3.0 0.00 0.00 0.00 56 1014.0
20260508210520 67 203 1.0 2.0 0.00 0.00 0.00 56 1014.0
20260508205521 67 0.0 1.0 0.00 0.00 0.00 58 1014.0
20260508204521 66 135 1.0 2.0 0.00 0.00 0.00 55 1014.3
20260508203521 67 90 1.0 3.0 0.00 0.00 0.00 55 1014.3
20260508202520 67 0.0 1.0 0.00 0.00 0.00 56 1014.5
20260508201521 67 135 1.0 2.0 0.00 0.00 0.00 56 1014.4
20260508200520 67 135 2.0 3.0 0.00 0.00 0.00 54 1014.6
20260508195520 68 0.0 2.0 0.00 0.00 0.00 55 1015.1
20260508194521 68 203 1.0 2.0 0.00 0.00 0.00 54 1015.4
20260508193520 68 158 1.0 2.0 0.00 0.00 0.00 53 1015.7
20260508192520 69 135 1.0 3.0 0.00 0.00 0.00 52 1015.7
20260508191520 69 45 1.0 5.0 0.00 0.00 0.00 51 1016.1
20260508190520 69 68 1.0 3.0 0.00 0.00 0.00 54 1015.9
20260508185521 69 90 2.0 4.0 0.00 0.00 0.00 51 1016.2
20260508184520 69 135 2.0 4.0 0.00 0.00 0.00 52 1016.2
20260508183520 69 203 1.0 5.0 0.00 0.00 0.00 52 1016.5
20260508182545 69 135 1.0 3.0 0.00 0.00 0.00 52 1016.5
20260508181520 69 113 2.0 4.0 0.00 0.00 0.00 51 1016.9
20260508180520 69 135 1.0 4.0 0.00 0.00 0.00 51 1016.9
20260508175520 68 135 2.0 3.0 0.00 0.00 0.00 51 1016.7
20260508174520 69 270 1.0 4.0 0.00 0.00 0.00 48 1017.1
20260508173520 68 203 1.0 3.0 0.00 0.00 0.00 53 1017.2
20260508172520 67 135 1.0 3.0 0.00 0.00 0.00 52 1017.2
20260508171522 68 113 1.0 3.0 0.00 0.00 0.00 49 1017.3
20260508170548 68 113 1.0 3.0 0.00 0.00 0.00 49 1017.4
20260508165520 68 158 1.0 2.0 0.00 0.00 0.00 55 1017.6
20260508164522 67 68 1.0 3.0 0.00 0.00 0.00 50 1017.8
20260508163520 67 113 1.0 3.0 0.00 0.00 0.00 50 1018.1
20260508162522 67 135 1.0 3.0 0.00 0.00 0.00 49 1018.4
20260508161522 67 135 1.0 3.0 0.00 0.00 0.00 52 1018.5
20260508160522 65 0.0 1.0 0.00 0.00 0.00 51 1018.4
20260508155522 64 0.0 1.0 0.00 0.00 0.00 54 1018.7
20260508154522 63 23 1.0 2.0 0.00 0.00 0.00 56 1018.5
20260508153522 62 23 1.0 2.0 0.00 0.00 0.00 51 1018.6
20260508152522 62 158 1.0 2.0 0.00 0.00 0.00 54 1018.9
20260508151522 61 0.0 1.0 0.00 0.00 0.00 59 1018.8
20260508150522 60 0.0 0.0 0.00 0.00 0.00 59 1018.6
20260508145547 59 0.0 1.0 0.00 0.00 0.00 62 1018.4
20260508144522 58 0.0 3.0 0.00 0.00 0.00 59 1018.6
20260508143522 56 0.0 1.0 0.00 0.00 0.00 66 1018.6
20260508142547 55 0.0 1.0 0.00 0.00 0.00 64 1018.4
20260508141522 54 0.0 1.0 0.00 0.00 0.00 67 1018.4
20260508140522 52 0.0 1.0 0.00 0.00 0.00 72 1018.4
20260508135522 51 0.0 0.0 0.00 0.00 0.00 78 1018.5
20260508134547 50 0.0 0.0 0.00 0.00 0.00 86 1018.6
20260508133522 49 0.0 0.0 0.00 0.00 0.00 90 1018.5
20260508132522 49 0.0 0.0 0.00 0.00 0.00 89 1018.4
20260508131522 48 0.0 0.0 0.00 0.00 0.00 86 1018.5
20260508130522 47 0.0 0.0 0.00 0.00 0.00 85 1018.3
20260508125522 46 0.0 0.0 0.00 0.00 0.00 85 1018.1
20260508124522 46 0.0 0.0 0.00 0.00 0.00 85 1018.2
20260508123547 45 0.0 0.0 0.00 0.00 0.00 85 1018.1
20260508122522 45 0.0 0.0 0.00 0.00 0.00 86 1018.0
20260508121522 44 0.0 0.0 0.00 0.00 0.00 86 1018.0
20260508120522 44 0.0 0.0 0.00 0.00 0.00 86 1017.7
20260508115522 43 0.0 0.0 0.00 0.00 0.00 87 1017.5
20260508114522 43 0.0 0.0 0.00 0.00 0.00 88 1017.2
20260508113522 43 0.0 0.0 0.00 0.00 0.00 89 1017.0
20260508112521 43 0.0 0.0 0.00 0.01 0.00 89 1016.8
20260508111522 43 0.0 0.0 0.00 0.03 0.00 89 1016.4
20260508110522 43 0.0 0.0 0.00 0.06 0.00 90 1016.3
20260508105522 43 0.0 0.0 0.00 0.09 0.00 90 1016.2
20260508104522 43 0.0 0.0 0.00 0.12 0.00 90 1016.0
20260508103522 43 0.0 1.0 0.00 0.14 0.00 90 1016.0
20260508102521 44 0.0 0.0 0.00 0.16 0.00 90 1016.0
20260508101522 44 0.0 0.0 0.00 0.16 0.00 90 1015.8
20260508100521 44 0.0 0.0 0.00 0.16 0.00 90 1015.7
20260508095521 44 0.0 0.0 0.00 0.16 0.00 90 1015.6
20260508094522 45 0.0 0.0 0.00 0.16 0.00 90 1015.6
20260508093522 45 0.0 0.0 0.00 0.16 0.00 90 1015.5
20260508092546 45 0.0 0.0 0.00 0.16 0.00 90 1015.4
20260508091522 45 0.0 0.0 0.00 0.16 0.00 90 1015.8
20260508090521 45 0.0 0.0 0.00 0.16 0.00 90 1015.6
20260508085522 45 0.0 1.0 0.00 0.16 0.00 90 1015.5
20260508084521 45 0.0 0.0 0.00 0.16 0.00 90 1015.5
20260508083521 46 0.0 0.0 0.00 0.16 0.00 90 1015.4
20260508082521 46 0.0 0.0 0.00 0.16 0.00 89 1015.2
20260508081521 46 0.0 0.0 0.00 0.16 0.00 89 1015.5
20260508080521 46 0.0 0.0 0.00 0.16 0.00 88 1015.3
20260508075546 46 0.0 0.0 0.00 0.16 0.00 88 1015.2
20260508074547 46 0.0 0.0 0.00 0.16 0.00 87 1015.3
20260508073521 46 0.0 0.0 0.00 0.16 0.00 87 1015.4
20260508072546 46 0.0 0.0 0.00 0.16 0.00 86 1015.2
20260508071521 46 0.0 1.0 0.00 0.16 0.00 86 1015.1
20260508070521 46 0.0 1.0 0.00 0.16 0.00 86 1015.1
20260508065521 46 0.0 0.0 0.00 0.16 0.00 87 1014.9
20260508064521 46 0.0 0.0 0.00 0.17 0.00 88 1014.9
20260508063521 46 0.0 0.0 0.00 0.17 0.00 88 1014.8
20260508062521 46 0.0 0.0 0.00 0.17 0.00 89 1014.9
20260508061546 46 0.0 0.0 0.00 0.17 0.00 89 1015.1
20260508060546 46 0.0 0.0 0.00 0.17 0.00 89 1015.3
20260508055521 46 0.0 0.0 0.00 0.17 0.00 89 1015.2
20260508054521 47 0.0 0.0 0.00 0.17 0.00 89 1015.3
20260508053611 47 0.0 0.0 0.00 0.17 0.00 89 1015.3
20260508052546 47 0.0 0.0 0.00 0.17 0.00 89 1015.2
20260508051521 47 0.0 0.0 0.00 0.17 0.00 89 1015.1
20260508050521 47 0.0 0.0 0.00 0.18 0.00 89 1015.1
20260508045521 47 0.0 0.0 0.00 0.21 0.00 89 1015.2
20260508044521 47 0.0 1.0 0.00 0.23 0.00 89 1015.0
20260508043521 47 0.0 0.0 0.00 0.25 0.00 89 1015.0